Time,TemperatureF,DewpointF,PressureIn,WindDirection,WindDirectionDegrees,WindSpeedMPH,WindSpeedGustMPH,Humidity,HourlyPrecipIn,Conditions,Clouds,dailyrainin,SoftwareType,DateUTC
2013-10-19 00:00:00,52.7,52.7,29.99,South,180,0.0,0.0,100,0.00,,OVC055,0.00,VWS V14.01,2013-10-19 04:00:00,
2013-10-19 00:01:00,52.7,52.7,29.99,South,180,0.0,0.0,100,0.00,,OVC055,0.00,VWS V14.01,2013-10-19 04:01:00,
2013-10-19 00:06:00,52.7,52.7,29.99,South,180,0.0,0.0,100,0.00,,OVC055,0.00,VWS V14.01,2013-10-19 04:06:00,
2013-10-19 00:11:00,52.8,52.8,29.99,South,180,0.0,0.0,100,0.00,,OVC055,0.00,VWS V14.01,2013-10-19 04:11:00,
2013-10-19 00:16:00,53.0,53.0,29.99,South,180,0.0,0.0,100,0.00,,OVC055,0.00,VWS V14.01,2013-10-19 04:16:00,
2013-10-19 00:21:00,53.1,53.1,29.99,South,180,0.0,0.0,100,0.00,,OVC055,0.00,VWS V14.01,2013-10-19 04:21:00,
2013-10-19 00:26:00,53.2,53.2,29.99,South,180,0.0,0.0,100,0.00,,OVC055,0.00,VWS V14.01,2013-10-19 04:26:00,
2013-10-19 00:30:00,53.2,53.2,29.98,South,180,0.0,0.0,100,0.00,,OVC055,0.00,VWS V14.01,2013-10-19 04:30:00,
2013-10-19 00:31:00,53.3,53.3,29.99,South,180,0.0,0.0,100,0.00,,OVC055,0.00,VWS V14.01,2013-10-19 04:31:00,
2013-10-19 00:36:00,53.4,53.4,29.98,South,180,0.0,0.0,100,0.00,,OVC055,0.00,VWS V14.01,2013-10-19 04:36:00,
2013-10-19 00:41:00,53.4,53.4,29.98,South,180,0.0,0.0,100,0.00,,OVC055,0.00,VWS V14.01,2013-10-19 04:41:00,
2013-10-19 00:46:00,53.5,53.5,29.98,South,180,0.0,0.0,100,0.00,,OVC055,0.00,VWS V14.01,2013-10-19 04:46:00,
2013-10-19 00:51:00,53.5,53.5,29.98,South,180,0.0,0.0,100,0.00,,OVC055,0.00,VWS V14.01,2013-10-19 04:51:00,
2013-10-19 00:56:00,53.5,53.5,29.98,South,180,0.0,0.0,100,0.00,,OVC055,0.00,VWS V14.01,2013-10-19 04:56:00,
2013-10-19 01:00:00,53.5,53.5,29.98,South,180,0.0,0.0,100,0.00,,OVC055,0.00,VWS V14.01,2013-10-19 05:00:00,
2013-10-19 01:01:00,53.5,53.5,29.98,South,180,0.0,0.0,100,0.00,,OVC055,0.00,VWS V14.01,2013-10-19 05:01:00,
2013-10-19 01:06:00,53.5,53.5,29.99,South,180,0.0,0.0,100,0.00,,OVC055,0.00,VWS V14.01,2013-10-19 05:06:00,
2013-10-19 01:11:00,53.5,53.5,29.97,South,180,0.0,0.0,100,0.00,,OVC055,0.00,VWS V14.01,2013-10-19 05:11:00,
2013-10-19 01:16:00,53.5,53.5,29.97,South,180,0.0,0.0,100,0.00,,OVC055,0.00,VWS V14.01,2013-10-19 05:16:00,
2013-10-19 01:21:00,53.5,53.5,29.97,South,180,0.0,0.0,100,0.00,,OVC055,0.00,VWS V14.01,2013-10-19 05:21:00,
2013-10-19 01:26:00,53.5,53.5,29.97,South,180,0.0,0.0,100,0.00,,OVC055,0.00,VWS V14.01,2013-10-19 05:26:00,
2013-10-19 01:30:00,53.5,53.5,29.97,South,180,0.0,0.0,100,0.00,,OVC055,0.00,VWS V14.01,2013-10-19 05:30:00,
2013-10-19 01:31:00,53.5,53.5,29.97,South,180,0.0,0.0,100,0.00,,OVC055,0.00,VWS V14.01,2013-10-19 05:31:00,
2013-10-19 01:36:00,53.6,53.6,29.97,South,180,0.0,0.0,100,0.00,,OVC055,0.00,VWS V14.01,2013-10-19 05:36:00,
2013-10-19 01:41:00,53.6,53.6,29.97,South,180,0.0,0.0,100,0.00,,OVC055,0.00,VWS V14.01,2013-10-19 05:41:00,
2013-10-19 01:46:00,53.7,53.7,29.97,South,180,0.0,0.0,100,0.00,,OVC055,0.00,VWS V14.01,2013-10-19 05:46:00,
2013-10-19 01:51:00,53.7,53.7,29.97,South,180,0.0,0.0,100,0.00,,OVC055,0.00,VWS V14.01,2013-10-19 05:51:00,
2013-10-19 01:56:00,53.6,53.6,29.97,South,180,0.0,0.0,100,0.00,,OVC055,0.00,VWS V14.01,2013-10-19 05:56:00,
2013-10-19 02:00:00,53.6,53.6,29.97,South,180,0.0,0.0,100,0.00,,OVC055,0.00,VWS V14.01,2013-10-19 06:00:00,
2013-10-19 02:01:00,53.5,53.5,29.97,South,180,0.0,0.0,100,0.00,,OVC055,0.00,VWS V14.01,2013-10-19 06:01:00,
2013-10-19 02:06:00,53.5,53.5,29.97,South,180,0.0,0.0,100,0.00,,OVC055,0.00,VWS V14.01,2013-10-19 06:06:00,
2013-10-19 02:10:00,53.5,53.5,29.97,South,180,0.0,0.0,100,0.00,,OVC055,0.00,VWS V14.01,2013-10-19 06:10:00,
2013-10-19 02:15:00,53.3,53.3,29.97,South,180,0.0,0.0,100,0.00,,OVC055,0.00,VWS V14.01,2013-10-19 06:15:00,
2013-10-19 02:20:00,53.3,53.3,29.97,South,180,0.0,0.0,100,0.00,,OVC055,0.00,VWS V14.01,2013-10-19 06:20:00,
2013-10-19 02:25:00,53.1,53.1,29.97,South,180,0.0,0.0,100,0.00,,OVC055,0.00,VWS V14.01,2013-10-19 06:25:00,
2013-10-19 02:30:00,53.0,53.0,29.97,South,180,0.0,0.0,100,0.00,,OVC055,0.00,VWS V14.01,2013-10-19 06:30:00,
2013-10-19 02:35:00,53.0,53.0,29.96,South,180,0.0,0.0,100,0.00,,OVC055,0.00,VWS V14.01,2013-10-19 06:35:00,
2013-10-19 02:40:00,53.0,53.0,29.96,South,180,0.0,0.0,100,0.00,,OVC055,0.00,VWS V14.01,2013-10-19 06:40:00,
2013-10-19 02:45:00,53.0,53.0,29.95,South,180,0.0,0.0,100,0.00,,OVC055,0.00,VWS V14.01,2013-10-19 06:45:00,
2013-10-19 02:50:00,52.9,52.9,29.95,South,180,0.0,0.0,100,0.00,,OVC055,0.00,VWS V14.01,2013-10-19 06:50:00,
2013-10-19 02:55:00,52.9,52.9,29.95,South,180,0.0,0.0,100,0.00,,OVC055,0.00,VWS V14.01,2013-10-19 06:55:00,
2013-10-19 03:00:00,52.9,52.9,29.95,South,180,0.0,0.0,100,0.00,,OVC055,0.00,VWS V14.01,2013-10-19 07:00:00,
2013-10-19 03:05:00,53.0,53.0,29.94,South,180,0.0,1.0,100,0.00,,OVC055,0.00,VWS V14.01,2013-10-19 07:05:00,
2013-10-19 03:10:00,53.0,53.0,29.95,South,180,0.0,1.0,100,0.00,,OVC055,0.00,VWS V14.01,2013-10-19 07:10:00,
2013-10-19 03:15:00,53.0,53.0,29.95,South,180,0.0,1.0,100,0.00,,OVC055,0.00,VWS V14.01,2013-10-19 07:15:00,
2013-10-19 03:20:00,53.0,53.0,29.95,South,180,0.0,1.0,100,0.00,,OVC055,0.00,VWS V14.01,2013-10-19 07:20:00,
2013-10-19 03:25:00,53.0,53.0,29.95,South,180,0.0,1.0,100,0.00,,OVC055,0.00,VWS V14.01,2013-10-19 07:25:00,
2013-10-19 03:30:00,53.0,53.0,29.95,South,180,0.0,0.0,100,0.00,,OVC055,0.00,VWS V14.01,2013-10-19 07:30:00,
2013-10-19 03:35:00,53.0,53.0,29.95,South,180,0.0,0.0,100,0.00,,OVC055,0.00,VWS V14.01,2013-10-19 07:35:00,
2013-10-19 03:40:00,53.0,53.0,29.94,South,180,0.0,0.0,100,0.00,,OVC055,0.00,VWS V14.01,2013-10-19 07:40:00,
2013-10-19 03:45:00,53.0,53.0,29.94,South,180,0.0,0.0,100,0.00,,OVC055,0.00,VWS V14.01,2013-10-19 07:45:00,
2013-10-19 03:50:00,53.0,53.0,29.94,South,180,0.0,0.0,100,0.00,,OVC055,0.00,VWS V14.01,2013-10-19 07:50:00,
2013-10-19 03:55:00,52.9,52.9,29.94,South,180,0.0,0.0,100,0.00,,OVC055,0.00,VWS V14.01,2013-10-19 07:55:00,
2013-10-19 04:00:00,52.8,52.8,29.94,South,180,0.0,0.0,100,0.00,,OVC055,0.00,VWS V14.01,2013-10-19 08:00:00,
2013-10-19 04:05:00,52.8,52.8,29.95,South,180,0.0,0.0,100,0.00,,OVC055,0.00,VWS V14.01,2013-10-19 08:05:00,
2013-10-19 04:10:00,52.8,52.8,29.94,South,180,0.0,0.0,100,0.00,,OVC055,0.00,VWS V14.01,2013-10-19 08:10:00,
2013-10-19 04:15:00,52.7,52.7,29.94,South,180,0.0,0.0,100,0.00,,OVC055,0.00,VWS V14.01,2013-10-19 08:15:00,
2013-10-19 04:20:00,52.7,52.7,29.94,South,180,0.0,0.0,100,0.00,,OVC055,0.00,VWS V14.01,2013-10-19 08:20:00,
2013-10-19 04:25:00,52.7,52.7,29.94,South,180,0.0,0.0,100,0.00,,OVC055,0.00,VWS V14.01,2013-10-19 08:25:00,
2013-10-19 04:30:00,52.7,52.7,29.94,South,180,0.0,0.0,100,0.00,,OVC055,0.00,VWS V14.01,2013-10-19 08:30:00,
2013-10-19 04:35:00,52.7,52.7,29.94,South,180,0.0,0.0,100,0.00,,OVC055,0.00,VWS V14.01,2013-10-19 08:35:00,
2013-10-19 04:40:00,52.6,52.6,29.94,South,180,0.0,0.0,100,0.00,,OVC055,0.00,VWS V14.01,2013-10-19 08:40:00,
2013-10-19 04:45:00,52.6,52.6,29.93,South,180,0.0,0.0,100,0.00,,OVC055,0.00,VWS V14.01,2013-10-19 08:45:00,
2013-10-19 04:50:00,52.6,52.6,29.93,South,180,0.0,0.0,100,0.00,,OVC055,0.00,VWS V14.01,2013-10-19 08:50:00,
2013-10-19 04:55:00,52.6,52.6,29.93,South,180,0.0,0.0,100,0.00,,OVC055,0.00,VWS V14.01,2013-10-19 08:55:00,
2013-10-19 05:00:00,52.5,52.5,29.93,South,180,0.0,0.0,100,0.00,,OVC055,0.00,VWS V14.01,2013-10-19 09:00:00,
2013-10-19 05:05:00,52.5,52.5,29.93,South,180,0.0,0.0,100,0.00,,OVC055,0.00,VWS V14.01,2013-10-19 09:05:00,
2013-10-19 05:10:00,52.4,52.4,29.93,South,180,0.0,0.0,100,0.00,,OVC055,0.00,VWS V14.01,2013-10-19 09:10:00,
2013-10-19 05:15:00,52.4,52.4,29.92,South,180,0.0,0.0,100,0.00,,OVC055,0.00,VWS V14.01,2013-10-19 09:15:00,
2013-10-19 05:20:00,52.4,52.4,29.93,South,180,0.0,0.0,100,0.00,,OVC055,0.00,VWS V14.01,2013-10-19 09:20:00,
2013-10-19 05:25:00,52.4,52.4,29.93,South,180,0.0,0.0,100,0.00,,OVC055,0.00,VWS V14.01,2013-10-19 09:25:00,
2013-10-19 05:30:00,52.4,52.4,29.93,South,180,0.0,0.0,100,0.00,,OVC055,0.00,VWS V14.01,2013-10-19 09:30:00,
2013-10-19 05:35:00,52.4,52.4,29.93,South,180,0.0,0.0,100,0.00,,OVC055,0.00,VWS V14.01,2013-10-19 09:35:00,
2013-10-19 05:40:00,52.5,52.5,29.93,South,180,0.0,0.0,100,0.00,,OVC055,0.00,VWS V14.01,2013-10-19 09:40:00,
2013-10-19 05:45:00,52.4,52.4,29.93,South,180,0.0,0.0,100,0.00,,OVC055,0.00,VWS V14.01,2013-10-19 09:45:00,
2013-10-19 05:50:00,52.5,52.5,29.92,South,180,0.0,0.0,100,0.00,,OVC055,0.00,VWS V14.01,2013-10-19 09:50:00,
2013-10-19 05:55:00,52.4,52.4,29.93,South,180,0.0,0.0,100,0.00,,OVC055,0.00,VWS V14.01,2013-10-19 09:55:00,
2013-10-19 06:00:00,52.4,52.4,29.92,South,180,0.0,0.0,100,0.00,,OVC055,0.00,VWS V14.01,2013-10-19 10:00:00,
2013-10-19 06:05:00,52.4,52.4,29.92,South,180,0.0,0.0,100,0.00,,OVC055,0.00,VWS V14.01,2013-10-19 10:05:00,
2013-10-19 06:10:00,52.4,52.4,29.92,South,180,0.0,0.0,100,0.00,,OVC055,0.00,VWS V14.01,2013-10-19 10:10:00,
2013-10-19 06:15:00,52.4,52.4,29.93,South,180,0.0,0.0,100,0.00,,OVC055,0.00,VWS V14.01,2013-10-19 10:15:00,
2013-10-19 06:20:00,52.4,52.4,29.92,South,180,0.0,0.0,100,0.00,,OVC055,0.00,VWS V14.01,2013-10-19 10:20:00,
2013-10-19 06:25:00,52.4,52.4,29.93,South,180,0.0,0.0,100,0.00,,OVC055,0.00,VWS V14.01,2013-10-19 10:25:00,
2013-10-19 06:30:00,52.4,52.4,29.93,South,180,0.0,0.0,100,0.00,,OVC055,0.00,VWS V14.01,2013-10-19 10:30:00,
2013-10-19 06:35:00,52.4,52.4,29.93,South,180,0.0,0.0,100,0.00,,OVC055,0.00,VWS V14.01,2013-10-19 10:35:00,
2013-10-19 06:40:00,52.4,52.4,29.93,South,180,0.0,0.0,100,0.00,,OVC055,0.00,VWS V14.01,2013-10-19 10:40:00,
2013-10-19 06:45:00,52.4,52.4,29.93,South,180,0.0,0.0,100,0.00,,OVC055,0.00,VWS V14.01,2013-10-19 10:45:00,
2013-10-19 06:50:00,52.4,52.4,29.94,South,180,0.0,0.0,100,0.00,,OVC055,0.00,VWS V14.01,2013-10-19 10:50:00,
2013-10-19 06:55:00,52.4,52.4,29.94,South,180,0.0,0.0,100,0.00,,OVC055,0.00,VWS V14.01,2013-10-19 10:55:00,
2013-10-19 07:00:00,52.4,52.4,29.93,South,180,0.0,0.0,100,0.00,,OVC055,0.00,VWS V14.01,2013-10-19 11:00:00,
2013-10-19 07:05:00,52.4,52.4,29.93,South,180,0.0,0.0,100,0.00,,OVC055,0.00,VWS V14.01,2013-10-19 11:05:00,
2013-10-19 07:10:00,52.4,52.4,29.93,South,180,0.0,0.0,100,0.01,,OVC055,0.01,VWS V14.01,2013-10-19 11:10:00,
2013-10-19 07:15:00,52.4,52.4,29.93,South,180,0.0,0.0,100,0.01,,OVC055,0.01,VWS V14.01,2013-10-19 11:15:00,
2013-10-19 07:20:00,52.5,52.5,29.93,South,180,0.0,0.0,100,0.01,,OVC055,0.01,VWS V14.01,2013-10-19 11:20:00,
2013-10-19 07:25:00,52.5,52.5,29.92,South,180,0.0,0.0,100,0.01,,OVC055,0.01,VWS V14.01,2013-10-19 11:25:00,
2013-10-19 07:30:00,52.4,52.4,29.93,South,180,0.0,0.0,100,0.01,,OVC055,0.01,VWS V14.01,2013-10-19 11:30:00,
2013-10-19 07:35:00,52.4,52.4,29.92,South,180,0.0,0.0,100,0.01,,OVC055,0.01,VWS V14.01,2013-10-19 11:35:00,
2013-10-19 07:40:00,52.3,52.3,29.93,South,180,0.0,0.0,100,0.01,,OVC055,0.01,VWS V14.01,2013-10-19 11:40:00,
2013-10-19 07:45:00,52.3,52.3,29.93,South,180,0.0,0.0,100,0.01,,OVC055,0.01,VWS V14.01,2013-10-19 11:45:00,
2013-10-19 07:50:00,52.3,52.3,29.93,South,180,0.0,0.0,100,0.01,,OVC055,0.01,VWS V14.01,2013-10-19 11:50:00,
2013-10-19 07:55:00,52.3,52.3,29.93,South,180,0.0,0.0,100,0.01,,OVC055,0.01,VWS V14.01,2013-10-19 11:55:00,
2013-10-19 08:00:00,52.3,52.3,29.93,South,180,0.0,0.0,100,0.01,,OVC055,0.01,VWS V14.01,2013-10-19 12:00:00,
2013-10-19 08:05:00,52.4,52.4,29.93,South,180,0.0,0.0,100,0.01,,OVC055,0.01,VWS V14.01,2013-10-19 12:05:00,
2013-10-19 08:10:00,52.4,52.4,29.93,South,180,0.0,0.0,100,0.01,,OVC055,0.01,VWS V14.01,2013-10-19 12:10:00,
2013-10-19 08:15:00,52.6,52.6,29.93,South,180,0.0,0.0,100,0.01,,OVC055,0.01,VWS V14.01,2013-10-19 12:15:00,
2013-10-19 08:20:00,52.7,52.7,29.93,South,180,0.0,0.0,100,0.01,,OVC055,0.01,VWS V14.01,2013-10-19 12:20:00,
2013-10-19 08:25:00,52.8,52.8,29.93,South,180,0.0,0.0,100,0.01,,OVC055,0.01,VWS V14.01,2013-10-19 12:25:00,
2013-10-19 08:30:00,52.9,52.9,29.93,South,180,0.0,0.0,100,0.00,,OVC055,0.01,VWS V14.01,2013-10-19 12:30:00,
2013-10-19 08:35:00,53.0,53.0,29.93,South,180,0.0,0.0,100,0.00,,OVC055,0.01,VWS V14.01,2013-10-19 12:35:00,
2013-10-19 08:40:00,53.2,53.2,29.93,South,180,0.0,0.0,100,0.00,,OVC055,0.01,VWS V14.01,2013-10-19 12:40:00,
2013-10-19 08:45:00,53.2,53.2,29.93,South,180,0.0,0.0,100,0.00,,OVC055,0.01,VWS V14.01,2013-10-19 12:45:00,
2013-10-19 08:50:00,53.3,53.3,29.93,South,180,0.0,0.0,100,0.00,,OVC055,0.01,VWS V14.01,2013-10-19 12:50:00,
2013-10-19 08:55:00,53.5,53.5,29.94,South,180,0.0,0.0,100,0.00,,OVC055,0.01,VWS V14.01,2013-10-19 12:55:00,
2013-10-19 09:00:00,53.8,53.8,29.93,South,180,0.0,0.0,100,0.00,,OVC055,0.01,VWS V14.01,2013-10-19 13:00:00,
2013-10-19 09:05:00,53.8,53.8,29.93,South,180,0.0,0.0,100,0.00,,OVC055,0.01,VWS V14.01,2013-10-19 13:05:00,
2013-10-19 09:10:00,54.0,54.0,29.93,South,180,0.0,1.0,100,0.00,,OVC055,0.01,VWS V14.01,2013-10-19 13:10:00,
2013-10-19 09:15:00,54.0,54.0,29.93,NNE,27,0.0,1.0,100,0.00,,OVC055,0.01,VWS V14.01,2013-10-19 13:15:00,
2013-10-19 09:20:00,54.0,54.0,29.93,NNE,27,0.0,1.0,100,0.00,,OVC055,0.01,VWS V14.01,2013-10-19 13:20:00,
2013-10-19 09:25:00,54.1,54.1,29.94,NNE,27,0.0,1.0,100,0.00,,OVC055,0.01,VWS V14.01,2013-10-19 13:25:00,
2013-10-19 09:30:00,54.3,54.3,29.95,NNE,27,1.0,1.0,100,0.00,,OVC055,0.01,VWS V14.01,2013-10-19 13:30:00,
2013-10-19 09:35:00,54.4,54.4,29.94,NNE,28,0.0,1.0,100,0.00,,OVC055,0.01,VWS V14.01,2013-10-19 13:35:00,
2013-10-19 09:40:00,54.5,54.5,29.93,NNE,28,0.0,1.0,100,0.00,,OVC055,0.01,VWS V14.01,2013-10-19 13:40:00,
2013-10-19 09:45:00,54.6,54.6,29.93,NNE,28,1.0,1.0,100,0.00,,OVC055,0.01,VWS V14.01,2013-10-19 13:45:00,
2013-10-19 09:50:00,54.7,54.7,29.93,NNE,28,0.0,2.0,100,0.00,,OVC055,0.01,VWS V14.01,2013-10-19 13:50:00,
2013-10-19 09:54:00,54.9,54.9,29.94,NNE,28,0.0,2.0,100,0.00,,OVC055,0.01,VWS V14.01,2013-10-19 13:54:00,
2013-10-19 09:59:00,55.0,55.0,29.93,NNE,28,0.0,1.0,100,0.00,,OVC055,0.01,VWS V14.01,2013-10-19 13:59:00,
2013-10-19 10:00:00,55.0,55.0,29.93,NNE,28,0.0,2.0,100,0.00,,OVC055,0.01,VWS V14.01,2013-10-19 14:00:00,
2013-10-19 10:04:00,55.1,55.1,29.94,NNE,28,0.0,1.0,100,0.00,,OVC055,0.01,VWS V14.01,2013-10-19 14:04:00,
2013-10-19 10:09:00,55.0,55.0,29.94,NNE,28,0.0,1.0,100,0.00,,OVC055,0.01,VWS V14.01,2013-10-19 14:09:00,
2013-10-19 10:14:00,55.0,55.0,29.94,NNE,28,1.0,1.0,100,0.00,,OVC055,0.01,VWS V14.01,2013-10-19 14:14:00,
2013-10-19 10:19:00,55.0,54.7,29.93,NNE,28,0.0,1.0,99,0.00,,OVC055,0.01,VWS V14.01,2013-10-19 14:19:00,
2013-10-19 10:24:00,55.1,54.8,29.94,NNE,28,0.0,1.0,99,0.00,,OVC055,0.01,VWS V14.01,2013-10-19 14:24:00,
2013-10-19 10:29:00,55.6,55.3,29.94,NNE,28,0.0,0.0,99,0.00,,OVC055,0.01,VWS V14.01,2013-10-19 14:29:00,
2013-10-19 10:30:00,55.5,55.2,29.94,NNE,28,0.0,1.0,99,0.00,,OVC055,0.01,VWS V14.01,2013-10-19 14:30:00,
2013-10-19 10:34:00,55.8,55.2,29.94,NNE,28,0.0,1.0,98,0.00,,OVC055,0.01,VWS V14.01,2013-10-19 14:34:00,
2013-10-19 10:39:00,56.0,55.5,29.93,NNE,28,0.0,1.0,98,0.00,,OVC055,0.01,VWS V14.01,2013-10-19 14:39:00,
2013-10-19 10:44:00,56.1,55.0,29.93,NNE,28,0.0,1.0,96,0.00,,OVC055,0.01,VWS V14.01,2013-10-19 14:44:00,
2013-10-19 10:49:00,56.4,55.6,29.93,NNE,28,0.0,1.0,97,0.00,,OVC055,0.01,VWS V14.01,2013-10-19 14:49:00,
2013-10-19 10:54:00,56.8,55.7,29.94,NNE,28,0.0,2.0,96,0.00,,OVC055,0.01,VWS V14.01,2013-10-19 14:54:00,
2013-10-19 10:59:00,57.3,55.6,29.94,NNE,28,0.0,1.0,94,0.00,,OVC055,0.01,VWS V14.01,2013-10-19 14:59:00,
2013-10-19 11:00:00,57.1,55.7,29.94,NNE,28,0.0,2.0,95,0.00,,OVC055,0.01,VWS V14.01,2013-10-19 15:00:00,
2013-10-19 11:04:00,57.7,55.4,29.94,NNE,28,0.0,1.0,92,0.00,,OVC055,0.01,VWS V14.01,2013-10-19 15:04:00,
2013-10-19 11:09:00,58.6,56.0,29.93,NNE,28,1.0,3.0,91,0.00,,OVC055,0.01,VWS V14.01,2013-10-19 15:09:00,
2013-10-19 11:14:00,59.3,55.4,29.93,NNE,28,0.0,3.0,87,0.00,,OVC055,0.01,VWS V14.01,2013-10-19 15:14:00,
2013-10-19 11:19:00,59.9,55.1,29.93,NNE,28,1.0,3.0,84,0.00,,OVC055,0.01,VWS V14.01,2013-10-19 15:19:00,
2013-10-19 11:24:00,60.3,54.8,29.92,East,88,1.0,3.0,82,0.00,,OVC055,0.01,VWS V14.01,2013-10-19 15:24:00,
2013-10-19 11:29:00,60.3,53.8,29.92,NNW,327,0.0,1.0,79,0.00,,OVC055,0.01,VWS V14.01,2013-10-19 15:29:00,
2013-10-19 11:30:00,60.3,54.1,29.92,NNW,327,1.0,4.0,80,0.00,,OVC055,0.01,VWS V14.01,2013-10-19 15:30:00,
2013-10-19 11:34:00,60.5,54.7,29.93,WNW,297,1.0,2.0,81,0.00,,OVC055,0.01,VWS V14.01,2013-10-19 15:34:00,
2013-10-19 11:39:00,60.6,55.1,29.93,NNW,329,0.0,4.0,82,0.00,,OVC055,0.01,VWS V14.01,2013-10-19 15:39:00,
2013-10-19 11:44:00,60.5,54.3,29.93,ESE,105,1.0,4.0,80,0.00,,OVC055,0.01,VWS V14.01,2013-10-19 15:44:00,
2013-10-19 11:49:00,60.5,54.0,29.93,NNE,13,1.0,4.0,79,0.00,,OVC055,0.01,VWS V14.01,2013-10-19 15:49:00,
2013-10-19 11:54:00,60.5,53.3,29.93,SSW,201,3.0,4.0,77,0.00,,OVC055,0.01,VWS V14.01,2013-10-19 15:54:00,
2013-10-19 11:59:00,60.5,53.3,29.93,North,5,2.0,3.0,77,0.00,,OVC055,0.01,VWS V14.01,2013-10-19 15:59:00,
2013-10-19 12:00:00,60.4,53.2,29.93,East,82,0.0,4.0,77,0.00,,OVC055,0.01,VWS V14.01,2013-10-19 16:00:00,
2013-10-19 12:04:00,60.5,52.5,29.92,SE,144,0.0,4.0,75,0.00,,OVC055,0.01,VWS V14.01,2013-10-19 16:04:00,
2013-10-19 12:09:00,60.5,52.9,29.92,ESE,115,2.0,4.0,76,0.00,,OVC055,0.01,VWS V14.01,2013-10-19 16:09:00,
2013-10-19 12:14:00,60.5,51.8,29.92,South,174,0.0,4.0,73,0.00,,OVC055,0.01,VWS V14.01,2013-10-19 16:14:00,
2013-10-19 12:19:00,60.5,51.4,29.92,SSE,159,2.0,5.0,72,0.00,,OVC055,0.01,VWS V14.01,2013-10-19 16:19:00,
2013-10-19 12:24:00,60.6,51.5,29.92,South,173,1.0,5.0,72,0.00,,OVC055,0.01,VWS V14.01,2013-10-19 16:24:00,
2013-10-19 12:29:00,60.6,52.3,29.92,NE,42,2.0,2.0,74,0.00,,OVC055,0.01,VWS V14.01,2013-10-19 16:29:00,
2013-10-19 12:30:00,60.6,52.6,29.92,West,259,0.0,5.0,75,0.00,,OVC055,0.01,VWS V14.01,2013-10-19 16:30:00,
2013-10-19 12:34:00,60.7,52.0,29.92,West,281,0.0,5.0,73,0.00,,OVC055,0.01,VWS V14.01,2013-10-19 16:34:00,
2013-10-19 12:39:00,60.9,52.9,29.91,WSW,246,0.0,5.0,75,0.00,,OVC055,0.01,VWS V14.01,2013-10-19 16:39:00,
2013-10-19 12:44:00,61.1,52.8,29.90,WSW,256,0.0,5.0,74,0.00,,OVC055,0.01,VWS V14.01,2013-10-19 16:44:00,
2013-10-19 12:49:00,61.3,53.7,29.90,WNW,282,0.0,5.0,76,0.00,,OVC055,0.01,VWS V14.01,2013-10-19 16:49:00,
2013-10-19 12:54:00,61.5,53.2,29.90,South,173,0.0,5.0,74,0.00,,OVC055,0.01,VWS V14.01,2013-10-19 16:54:00,
2013-10-19 12:59:00,61.6,53.2,29.89,NNW,348,1.0,2.0,74,0.00,,OVC055,0.01,VWS V14.01,2013-10-19 16:59:00,
2013-10-19 13:00:00,61.6,54.0,29.89,NNW,333,1.0,5.0,76,0.00,,OVC055,0.01,VWS V14.01,2013-10-19 17:00:00,
2013-10-19 13:04:00,61.7,53.0,29.88,North,349,0.0,2.0,73,0.00,,OVC055,0.01,VWS V14.01,2013-10-19 17:04:00,
2013-10-19 13:09:00,61.7,53.3,29.88,North,349,0.0,2.0,74,0.00,,OVC055,0.01,VWS V14.01,2013-10-19 17:09:00,
2013-10-19 13:14:00,61.7,53.3,29.87,North,349,0.0,2.0,74,0.00,,OVC055,0.01,VWS V14.01,2013-10-19 17:14:00,
2013-10-19 13:19:00,61.7,53.0,29.88,North,355,0.0,2.0,73,0.00,,OVC055,0.01,VWS V14.01,2013-10-19 17:19:00,
2013-10-19 13:24:00,61.8,54.9,29.87,North,355,0.0,2.0,78,0.00,,OVC055,0.01,VWS V14.01,2013-10-19 17:24:00,
2013-10-19 13:29:00,62.0,54.4,29.89,North,355,1.0,1.0,76,0.00,,OVC055,0.01,VWS V14.01,2013-10-19 17:29:00,
2013-10-19 13:30:00,61.9,55.3,29.89,North,355,0.0,2.0,79,0.00,,OVC055,0.01,VWS V14.01,2013-10-19 17:30:00,
2013-10-19 13:34:00,62.2,52.7,29.89,North,360,0.0,2.0,71,0.00,,OVC055,0.01,VWS V14.01,2013-10-19 17:34:00,
2013-10-19 13:39:00,62.4,52.5,29.89,ESE,119,0.0,4.0,70,0.00,,OVC055,0.01,VWS V14.01,2013-10-19 17:39:00,
2013-10-19 13:44:00,62.4,52.5,29.89,SE,126,0.0,4.0,70,0.00,,OVC055,0.01,VWS V14.01,2013-10-19 17:44:00,
2013-10-19 13:49:00,62.6,53.5,29.89,ESE,123,1.0,4.0,72,0.00,,OVC055,0.01,VWS V14.01,2013-10-19 17:49:00,
2013-10-19 13:54:00,63.2,52.1,29.88,NNW,342,0.0,4.0,67,0.00,,OVC055,0.01,VWS V14.01,2013-10-19 17:54:00,
2013-10-19 13:59:00,63.7,53.7,29.88,WSW,238,1.0,1.0,70,0.00,,OVC055,0.01,VWS V14.01,2013-10-19 17:59:00,
2013-10-19 14:00:00,63.6,52.5,29.88,WSW,238,0.0,5.0,67,0.00,,OVC055,0.01,VWS V14.01,2013-10-19 18:00:00,
2013-10-19 14:04:00,64.1,51.3,29.87,SSE,152,0.0,5.0,63,0.00,,OVC055,0.01,VWS V14.01,2013-10-19 18:04:00,
2013-10-19 14:09:00,64.2,50.9,29.87,SSE,150,3.0,5.0,62,0.00,,OVC055,0.01,VWS V14.01,2013-10-19 18:09:00,
2013-10-19 14:14:00,64.1,50.4,29.88,ENE,65,2.0,5.0,61,0.00,,OVC055,0.01,VWS V14.01,2013-10-19 18:14:00,
2013-10-19 14:19:00,63.8,51.0,29.87,SE,140,0.0,5.0,63,0.00,,OVC055,0.01,VWS V14.01,2013-10-19 18:19:00,
2013-10-19 14:24:00,63.8,51.4,29.87,SE,140,1.0,5.0,64,0.00,,OVC055,0.01,VWS V14.01,2013-10-19 18:24:00,
2013-10-19 14:29:00,64.0,53.2,29.88,NNW,342,1.0,1.0,68,0.00,,OVC055,0.01,VWS V14.01,2013-10-19 18:29:00,
2013-10-19 14:30:00,64.0,52.0,29.87,NNE,28,0.0,5.0,65,0.00,,OVC055,0.01,VWS V14.01,2013-10-19 18:30:00,
2013-10-19 14:34:00,64.3,54.3,29.88,NNW,344,0.0,2.0,70,0.00,,OVC055,0.01,VWS V14.01,2013-10-19 18:34:00,
2013-10-19 14:39:00,64.1,52.5,29.88,SSE,152,1.0,5.0,66,0.00,,OVC055,0.01,VWS V14.01,2013-10-19 18:39:00,
2013-10-19 14:44:00,63.6,53.3,29.88,South,176,2.0,5.0,69,0.00,,OVC055,0.01,VWS V14.01,2013-10-19 18:44:00,
2013-10-19 14:49:00,63.0,52.7,29.88,SSW,202,3.0,5.0,69,0.00,,OVC055,0.01,VWS V14.01,2013-10-19 18:49:00,
2013-10-19 14:54:00,62.6,54.9,29.89,ESE,109,3.0,5.0,76,0.00,,OVC055,0.01,VWS V14.01,2013-10-19 18:54:00,
2013-10-19 14:59:00,62.1,54.1,29.89,SSE,166,2.0,2.0,75,0.00,,OVC055,0.01,VWS V14.01,2013-10-19 18:59:00,
2013-10-19 15:00:00,62.2,54.5,29.88,ESE,114,0.0,5.0,76,0.00,,OVC055,0.01,VWS V14.01,2013-10-19 19:00:00,
2013-10-19 15:04:00,61.8,55.2,29.90,South,181,3.0,4.0,79,0.00,,OVC055,0.01,VWS V14.01,2013-10-19 19:04:00,
2013-10-19 15:09:00,61.3,54.4,29.89,SE,130,0.0,4.0,78,0.00,,OVC055,0.01,VWS V14.01,2013-10-19 19:09:00,
2013-10-19 15:14:00,60.9,54.0,29.89,SSE,162,1.0,4.0,78,0.00,,OVC055,0.01,VWS V14.01,2013-10-19 19:14:00,
2013-10-19 15:19:00,60.9,55.0,29.89,NNE,23,0.0,4.0,81,0.00,,OVC055,0.01,VWS V14.01,2013-10-19 19:19:00,
2013-10-19 15:24:00,61.2,54.3,29.89,SE,132,1.0,4.0,78,0.00,,OVC055,0.01,VWS V14.01,2013-10-19 19:24:00,
2013-10-19 15:29:00,61.5,54.2,29.89,ESE,123,1.0,1.0,77,0.00,,OVC055,0.01,VWS V14.01,2013-10-19 19:29:00,
2013-10-19 15:30:00,61.4,54.1,29.88,South,170,0.0,4.0,77,0.00,,OVC055,0.01,VWS V14.01,2013-10-19 19:30:00,
2013-10-19 15:34:00,61.9,53.5,29.89,West,263,1.0,4.0,74,0.00,,OVC055,0.01,VWS V14.01,2013-10-19 19:34:00,
2013-10-19 15:39:00,62.0,52.9,29.89,SW,229,0.0,5.0,72,0.00,,OVC055,0.01,VWS V14.01,2013-10-19 19:39:00,
2013-10-19 15:44:00,62.3,53.5,29.89,South,183,0.0,7.0,73,0.00,,OVC055,0.01,VWS V14.01,2013-10-19 19:44:00,
2013-10-19 15:49:00,62.4,52.1,29.89,SE,138,0.0,7.0,69,0.00,,OVC055,0.01,VWS V14.01,2013-10-19 19:49:00,
2013-10-19 15:53:00,62.4,52.1,29.88,WSW,240,2.0,7.0,69,0.00,,OVC055,0.01,VWS V14.01,2013-10-19 19:53:00,
2013-10-19 15:58:00,62.3,52.4,29.88,SSW,194,1.0,2.0,70,0.00,,OVC055,0.01,VWS V14.01,2013-10-19 19:58:00,
2013-10-19 16:00:00,62.3,52.0,29.88,South,188,0.0,7.0,69,0.00,,OVC055,0.01,VWS V14.01,2013-10-19 20:00:00,
2013-10-19 16:03:00,62.2,53.1,29.88,WSW,248,0.0,3.0,72,0.00,,OVC055,0.01,VWS V14.01,2013-10-19 20:03:00,
2013-10-19 16:08:00,62.2,54.2,29.88,WSW,248,0.0,3.0,75,0.00,,OVC055,0.01,VWS V14.01,2013-10-19 20:08:00,
2013-10-19 16:13:00,62.4,52.1,29.88,WSW,252,0.0,3.0,69,0.00,,OVC055,0.01,VWS V14.01,2013-10-19 20:13:00,
2013-10-19 16:18:00,62.5,52.6,29.88,SSE,157,1.0,3.0,70,0.00,,OVC055,0.01,VWS V14.01,2013-10-19 20:18:00,
2013-10-19 16:24:00,62.5,53.0,29.88,ESE,112,0.0,3.0,71,0.00,,OVC055,0.01,VWS V14.01,2013-10-19 20:24:00,
2013-10-19 16:29:00,62.5,54.1,29.88,ESE,115,0.0,0.0,74,0.00,,OVC055,0.01,VWS V14.01,2013-10-19 20:29:00,
2013-10-19 16:30:00,62.5,54.1,29.87,ESE,115,0.0,3.0,74,0.00,,OVC055,0.01,VWS V14.01,2013-10-19 20:30:00,
2013-10-19 16:33:00,62.5,52.6,29.88,SSW,211,0.0,4.0,70,0.00,,OVC055,0.01,VWS V14.01,2013-10-19 20:33:00,
2013-10-19 16:38:00,62.5,51.0,29.88,SE,127,1.0,4.0,66,0.00,,OVC055,0.01,VWS V14.01,2013-10-19 20:38:00,
2013-10-19 16:43:00,62.4,50.5,29.88,SSW,212,1.0,4.0,65,0.00,,OVC055,0.01,VWS V14.01,2013-10-19 20:43:00,
2013-10-19 16:48:00,62.4,50.5,29.89,SSW,212,0.0,4.0,65,0.00,,OVC055,0.01,VWS V14.01,2013-10-19 20:48:00,
2013-10-19 16:53:00,62.4,50.9,29.89,SSW,212,1.0,4.0,66,0.00,,OVC055,0.01,VWS V14.01,2013-10-19 20:53:00,
2013-10-19 16:58:00,62.2,51.9,29.89,SSW,212,1.0,1.0,69,0.00,,OVC055,0.01,VWS V14.01,2013-10-19 20:58:00,
2013-10-19 17:00:00,62.3,52.0,29.89,SSW,212,0.0,4.0,69,0.00,,OVC055,0.01,VWS V14.01,2013-10-19 21:00:00,
2013-10-19 17:03:00,62.0,52.5,29.89,SW,224,0.0,2.0,71,0.00,,OVC055,0.01,VWS V14.01,2013-10-19 21:03:00,
2013-10-19 17:08:00,61.6,52.5,29.88,SW,227,0.0,2.0,72,0.00,,OVC055,0.01,VWS V14.01,2013-10-19 21:08:00,
2013-10-19 17:13:00,61.2,51.3,29.89,West,270,2.0,3.0,70,0.00,,OVC055,0.01,VWS V14.01,2013-10-19 21:13:00,
2013-10-19 17:18:00,60.9,52.6,29.89,South,188,0.0,3.0,74,0.00,,OVC055,0.01,VWS V14.01,2013-10-19 21:18:00,
2013-10-19 17:23:00,60.6,52.6,29.88,South,188,0.0,3.0,75,0.00,,OVC055,0.01,VWS V14.01,2013-10-19 21:23:00,
2013-10-19 17:28:00,60.3,51.6,29.88,SSW,192,0.0,0.0,73,0.00,,OVC055,0.01,VWS V14.01,2013-10-19 21:28:00,
2013-10-19 17:30:00,60.4,51.3,29.88,SSW,192,0.0,3.0,72,0.00,,OVC055,0.01,VWS V14.01,2013-10-19 21:30:00,
2013-10-19 17:33:00,60.1,51.4,29.88,SSW,192,1.0,1.0,73,0.00,,OVC055,0.01,VWS V14.01,2013-10-19 21:33:00,
2013-10-19 17:38:00,59.8,50.0,29.89,SSW,198,0.0,2.0,70,0.00,,OVC055,0.01,VWS V14.01,2013-10-19 21:38:00,
2013-10-19 17:43:00,59.6,50.2,29.89,ESE,114,1.0,2.0,71,0.00,,OVC055,0.01,VWS V14.01,2013-10-19 21:43:00,
2013-10-19 17:48:00,59.4,50.4,29.89,WSW,244,0.0,3.0,72,0.00,,OVC055,0.01,VWS V14.01,2013-10-19 21:48:00,
2013-10-19 17:53:00,59.2,50.9,29.89,South,176,0.0,4.0,74,0.00,,OVC055,0.01,VWS V14.01,2013-10-19 21:53:00,
2013-10-19 17:58:00,58.9,49.9,29.89,South,176,1.0,1.0,72,0.00,,OVC055,0.01,VWS V14.01,2013-10-19 21:58:00,
2013-10-19 18:00:00,58.9,50.3,29.89,South,176,0.0,4.0,73,0.00,,OVC055,0.01,VWS V14.01,2013-10-19 22:00:00,
2013-10-19 18:03:00,58.7,49.0,29.89,SSE,161,0.0,4.0,70,0.00,,OVC055,0.01,VWS V14.01,2013-10-19 22:03:00,
2013-10-19 18:08:00,58.8,48.7,29.89,SSW,211,0.0,5.0,69,0.00,,OVC055,0.01,VWS V14.01,2013-10-19 22:08:00,
2013-10-19 18:13:00,58.9,49.2,29.89,SW,223,0.0,5.0,70,0.00,,OVC055,0.01,VWS V14.01,2013-10-19 22:13:00,
2013-10-19 18:18:00,58.7,49.0,29.89,SW,222,0.0,5.0,70,0.00,,OVC055,0.01,VWS V14.01,2013-10-19 22:18:00,
2013-10-19 18:23:00,58.2,48.8,29.89,SW,222,1.0,5.0,71,0.00,,OVC055,0.01,VWS V14.01,2013-10-19 22:23:00,
2013-10-19 18:28:00,57.7,48.4,29.90,SSW,207,0.0,1.0,71,0.00,,OVC055,0.01,VWS V14.01,2013-10-19 22:28:00,
2013-10-19 18:30:00,57.8,48.5,29.89,SSW,207,0.0,5.0,71,0.00,,OVC055,0.01,VWS V14.01,2013-10-19 22:30:00,
2013-10-19 18:33:00,57.3,48.7,29.90,SSW,207,1.0,1.0,73,0.00,,OVC055,0.01,VWS V14.01,2013-10-19 22:33:00,
2013-10-19 18:38:00,56.9,48.3,29.90,SSW,207,0.0,1.0,73,0.00,,OVC055,0.01,VWS V14.01,2013-10-19 22:38:00,
2013-10-19 18:43:00,56.5,47.6,29.91,SSW,207,0.0,1.0,72,0.00,,OVC055,0.01,VWS V14.01,2013-10-19 22:43:00,
2013-10-19 18:48:00,56.2,47.7,29.91,SSW,207,0.0,1.0,73,0.00,,OVC055,0.01,VWS V14.01,2013-10-19 22:48:00,
2013-10-19 18:53:00,55.9,49.5,29.91,SSW,207,0.0,1.0,79,0.00,,OVC055,0.01,VWS V14.01,2013-10-19 22:53:00,
2013-10-19 18:58:00,55.3,48.9,29.91,SSW,207,0.0,1.0,79,0.00,,OVC055,0.01,VWS V14.01,2013-10-19 22:58:00,
2013-10-19 19:00:00,55.4,49.0,29.91,SSW,207,1.0,1.0,79,0.00,,OVC055,0.01,VWS V14.01,2013-10-19 23:00:00,
2013-10-19 19:03:00,54.6,48.6,29.91,SSW,207,0.0,1.0,80,0.00,,OVC055,0.01,VWS V14.01,2013-10-19 23:03:00,
2013-10-19 19:08:00,54.2,49.2,29.91,SSW,212,0.0,1.0,83,0.00,,OVC055,0.01,VWS V14.01,2013-10-19 23:08:00,
2013-10-19 19:13:00,53.6,48.2,29.92,SSW,212,0.0,1.0,82,0.00,,OVC055,0.01,VWS V14.01,2013-10-19 23:13:00,
2013-10-19 19:18:00,53.2,48.5,29.92,SSW,212,0.0,1.0,84,0.00,,OVC055,0.01,VWS V14.01,2013-10-19 23:18:00,
2013-10-19 19:23:00,52.8,48.4,29.92,SSW,212,0.0,1.0,85,0.00,,OVC055,0.01,VWS V14.01,2013-10-19 23:23:00,
2013-10-19 19:28:00,52.4,48.3,29.92,SSW,212,0.0,0.0,86,0.00,,OVC055,0.01,VWS V14.01,2013-10-19 23:28:00,
2013-10-19 19:30:00,52.4,48.3,29.92,SSW,212,0.0,1.0,86,0.00,,OVC055,0.01,VWS V14.01,2013-10-19 23:30:00,
2013-10-19 19:33:00,51.9,48.2,29.92,SSW,212,1.0,2.0,87,0.00,,OVC055,0.01,VWS V14.01,2013-10-19 23:33:00,
2013-10-19 19:38:00,51.9,48.5,29.92,SSW,212,0.0,2.0,88,0.00,,OVC055,0.01,VWS V14.01,2013-10-19 23:38:00,
2013-10-19 19:43:00,51.4,48.3,29.92,NNW,329,1.0,2.0,89,0.00,,OVC055,0.01,VWS V14.01,2013-10-19 23:43:00,
2013-10-19 19:48:00,51.1,48.3,29.92,SW,226,2.0,3.0,90,0.00,,OVC055,0.01,VWS V14.01,2013-10-19 23:48:00,
2013-10-19 19:53:00,51.0,48.2,29.92,North,5,2.0,3.0,90,0.00,,OVC055,0.01,VWS V14.01,2013-10-19 23:53:00,
2013-10-19 19:58:00,50.7,47.9,29.92,North,11,0.0,0.0,90,0.00,,OVC055,0.01,VWS V14.01,2013-10-19 23:58:00,
2013-10-19 20:00:00,50.7,47.9,29.92,North,11,0.0,3.0,90,0.00,,OVC055,0.01,VWS V14.01,2013-10-20 00:00:00,
2013-10-19 20:03:00,50.4,47.9,29.93,North,360,0.0,2.0,91,0.00,,OVC055,0.01,VWS V14.01,2013-10-20 00:03:00,
2013-10-19 20:08:00,50.0,47.8,29.92,North,5,2.0,4.0,92,0.00,,OVC055,0.01,VWS V14.01,2013-10-20 00:08:00,
2013-10-19 20:13:00,49.7,47.8,29.93,NNW,335,2.0,4.0,93,0.00,,OVC055,0.01,VWS V14.01,2013-10-20 00:13:00,
2013-10-19 20:18:00,49.6,47.7,29.93,NNW,335,0.0,4.0,93,0.00,,OVC055,0.01,VWS V14.01,2013-10-20 00:18:00,
2013-10-19 20:23:00,49.4,47.5,29.93,NNW,335,0.0,4.0,93,0.00,,OVC055,0.01,VWS V14.01,2013-10-20 00:23:00,
2013-10-19 20:28:00,49.1,47.2,29.93,NNW,335,0.0,0.0,93,0.00,,OVC055,0.01,VWS V14.01,2013-10-20 00:28:00,
2013-10-19 20:30:00,49.1,47.2,29.93,NNW,335,0.0,4.0,93,0.00,,OVC055,0.01,VWS V14.01,2013-10-20 00:30:00,
2013-10-19 20:33:00,48.8,46.9,29.93,NNW,335,0.0,1.0,93,0.00,,OVC055,0.01,VWS V14.01,2013-10-20 00:33:00,
2013-10-19 20:38:00,48.5,46.9,29.93,NNW,335,0.0,1.0,94,0.00,,OVC055,0.01,VWS V14.01,2013-10-20 00:38:00,
2013-10-19 20:43:00,48.4,47.0,29.93,NNW,335,0.0,1.0,95,0.00,,OVC055,0.01,VWS V14.01,2013-10-20 00:43:00,
2013-10-19 20:48:00,48.2,46.8,29.94,NNW,335,1.0,1.0,95,0.00,,OVC055,0.01,VWS V14.01,2013-10-20 00:48:00,
2013-10-19 20:53:00,47.9,46.5,29.94,NNW,335,0.0,1.0,95,0.00,,OVC055,0.01,VWS V14.01,2013-10-20 00:53:00,
2013-10-19 20:58:00,47.7,46.6,29.94,NNW,335,0.0,1.0,96,0.00,,OVC055,0.01,VWS V14.01,2013-10-20 00:58:00,
2013-10-19 21:00:00,47.7,46.6,29.94,NNW,335,0.0,1.0,96,0.00,,OVC055,0.01,VWS V14.01,2013-10-20 01:00:00,
2013-10-19 21:03:00,47.8,47.0,29.94,NNW,335,0.0,1.0,97,0.00,,OVC055,0.01,VWS V14.01,2013-10-20 01:03:00,
2013-10-19 21:08:00,47.7,46.6,29.94,NNW,335,0.0,1.0,96,0.00,,OVC055,0.01,VWS V14.01,2013-10-20 01:08:00,
2013-10-19 21:13:00,47.6,46.5,29.94,NNW,335,0.0,1.0,96,0.00,,OVC055,0.01,VWS V14.01,2013-10-20 01:13:00,
2013-10-19 21:18:00,47.5,46.4,29.95,NNW,335,0.0,1.0,96,0.00,,OVC055,0.01,VWS V14.01,2013-10-20 01:18:00,
2013-10-19 21:23:00,47.3,46.2,29.94,NNW,335,0.0,1.0,96,0.00,,OVC055,0.01,VWS V14.01,2013-10-20 01:23:00,
2013-10-19 21:28:00,47.1,46.0,29.94,NNW,335,0.0,0.0,96,0.00,,OVC055,0.01,VWS V14.01,2013-10-20 01:28:00,
2013-10-19 21:30:00,47.1,46.0,29.94,NNW,335,0.0,1.0,96,0.00,,OVC055,0.01,VWS V14.01,2013-10-20 01:30:00,
2013-10-19 21:33:00,46.9,45.8,29.95,NNW,335,0.0,0.0,96,0.00,,OVC055,0.01,VWS V14.01,2013-10-20 01:33:00,
2013-10-19 21:38:00,46.7,45.9,29.95,NNW,335,1.0,2.0,97,0.00,,OVC055,0.01,VWS V14.01,2013-10-20 01:38:00,
2013-10-19 21:43:00,46.6,45.8,29.95,NNW,335,0.0,2.0,97,0.00,,OVC055,0.01,VWS V14.01,2013-10-20 01:43:00,
2013-10-19 21:48:00,46.3,45.5,29.95,NNW,335,0.0,3.0,97,0.00,,OVC055,0.01,VWS V14.01,2013-10-20 01:48:00,
2013-10-19 21:53:00,46.1,45.3,29.95,NNW,335,0.0,3.0,97,0.00,,OVC055,0.01,VWS V14.01,2013-10-20 01:53:00,
2013-10-19 21:58:00,46.0,45.2,29.96,NNW,335,0.0,3.0,97,0.00,,OVC055,0.01,VWS V14.01,2013-10-20 01:58:00,
2013-10-19 22:00:00,46.0,45.2,29.96,NNW,335,0.0,3.0,97,0.00,,OVC055,0.01,VWS V14.01,2013-10-20 02:00:00,
2013-10-19 22:03:00,46.0,45.5,29.96,NNW,335,0.0,0.0,98,0.00,,OVC055,0.01,VWS V14.01,2013-10-20 02:03:00,
2013-10-19 22:08:00,45.9,45.1,29.96,NNW,335,0.0,0.0,97,0.00,,OVC055,0.01,VWS V14.01,2013-10-20 02:08:00,
2013-10-19 22:13:00,45.7,45.2,29.96,NNW,335,0.0,0.0,98,0.00,,OVC055,0.01,VWS V14.01,2013-10-20 02:13:00,
2013-10-19 22:18:00,45.6,45.1,29.96,NNW,335,0.0,0.0,98,0.00,,OVC055,0.01,VWS V14.01,2013-10-20 02:18:00,
2013-10-19 22:23:00,45.4,44.6,29.96,NNW,335,0.0,0.0,97,0.00,,OVC055,0.01,VWS V14.01,2013-10-20 02:23:00,
2013-10-19 22:28:00,45.3,44.8,29.96,NNW,335,0.0,0.0,98,0.00,,OVC055,0.01,VWS V14.01,2013-10-20 02:28:00,
2013-10-19 22:30:00,45.3,44.8,29.96,NNW,335,0.0,0.0,98,0.00,,OVC055,0.01,VWS V14.01,2013-10-20 02:30:00,
2013-10-19 22:33:00,45.1,44.6,29.96,NNW,335,0.0,0.0,98,0.00,,OVC055,0.01,VWS V14.01,2013-10-20 02:33:00,
2013-10-19 22:38:00,45.1,44.6,29.96,NNW,335,0.0,0.0,98,0.00,,OVC055,0.01,VWS V14.01,2013-10-20 02:38:00,
2013-10-19 22:43:00,44.9,44.4,29.96,NNW,335,0.0,0.0,98,0.00,,OVC055,0.01,VWS V14.01,2013-10-20 02:43:00,
2013-10-19 22:48:00,44.6,44.1,29.97,NNW,335,0.0,0.0,98,0.00,,OVC055,0.01,VWS V14.01,2013-10-20 02:48:00,
2013-10-19 22:53:00,44.5,44.0,29.97,NNW,335,0.0,1.0,98,0.00,,OVC055,0.01,VWS V14.01,2013-10-20 02:53:00,
2013-10-19 22:58:00,44.5,44.2,29.97,NNW,335,0.0,1.0,99,0.00,,OVC055,0.01,VWS V14.01,2013-10-20 02:58:00,
2013-10-19 23:00:00,44.6,44.3,29.97,NNW,335,0.0,1.0,99,0.00,,OVC055,0.01,VWS V14.01,2013-10-20 03:00:00,
2013-10-19 23:03:00,44.6,44.3,29.97,NNW,335,0.0,0.0,99,0.00,,OVC055,0.01,VWS V14.01,2013-10-20 03:03:00,
2013-10-19 23:08:00,44.6,44.3,29.97,NNW,335,0.0,0.0,99,0.00,,OVC055,0.01,VWS V14.01,2013-10-20 03:08:00,
2013-10-19 23:13:00,44.5,44.2,29.97,NNW,335,0.0,0.0,99,0.00,,OVC055,0.01,VWS V14.01,2013-10-20 03:13:00,
2013-10-19 23:18:00,44.4,44.1,29.97,NNW,335,0.0,0.0,99,0.00,,OVC055,0.01,VWS V14.01,2013-10-20 03:18:00,
2013-10-19 23:22:00,44.2,43.7,29.97,NNW,335,0.0,0.0,98,0.00,,OVC055,0.01,VWS V14.01,2013-10-20 03:22:00,
2013-10-19 23:27:00,44.0,43.5,29.97,NNW,335,0.0,0.0,98,0.00,,OVC055,0.01,VWS V14.01,2013-10-20 03:27:00,
2013-10-19 23:30:00,43.9,43.4,29.97,NNW,335,0.0,0.0,98,0.00,,OVC055,0.01,VWS V14.01,2013-10-20 03:30:00,
2013-10-19 23:32:00,43.7,43.2,29.98,NNW,335,0.0,0.0,98,0.00,,OVC055,0.01,VWS V14.01,2013-10-20 03:32:00,
2013-10-19 23:37:00,43.6,43.1,29.98,NNW,335,0.0,0.0,98,0.00,,OVC055,0.01,VWS V14.01,2013-10-20 03:37:00,
2013-10-19 23:42:00,43.6,43.3,29.98,NNW,335,0.0,0.0,99,0.00,,OVC055,0.01,VWS V14.01,2013-10-20 03:42:00,
2013-10-19 23:47:00,43.5,43.2,29.98,NNW,335,0.0,0.0,99,0.00,,OVC055,0.01,VWS V14.01,2013-10-20 03:47:00,
2013-10-19 23:52:00,43.3,42.8,29.98,NNW,335,0.0,0.0,98,0.00,,OVC055,0.01,VWS V14.01,2013-10-20 03:52:00,
2013-10-19 23:57:00,43.2,42.9,29.98,NNW,335,0.0,0.0,99,0.00,,OVC055,0.01,VWS V14.01,2013-10-20 03:57:00,